www.pogodaiklimat.ru

Погода и климат >> Архив погоды >> Россия >> Краснодарский край >> Джубга


ПОГОДА в Джубге

  • Прогноз погоды в Джубге
  • Монитор погоды в Джубге

АРХИВ ПОГОДЫ в Джубге

Время (UTC), дата Ветер
(напр.,м/с)
 
Видим.   Явления Облачность Т
(С)
Тd
(С)
f
(%)
Тe
(С)
Тes
(С)
Комфортность P
(гПа)
Po
(гПа)
Тmin
(С)
Tmax
(С)
R
(мм)
R24
(мм)
S
(см)
03 14.09 С 3 10 км ясно +16.5 +6.1 50 +16 +16 1017.8 1015.3 +16.5
06 14.09 С 3 10 км 3/3
[Cu hum]
+19.9 +7.2 44 +21 +24 комфорт 1018.5 1016.0 +16.2
09 14.09 ЮВ 1 10 км 3/3 1000 м
[Cu med, cong]
+28.4 +15.2 45 +31 +41 душно 1017.9 1015.5
12 14.09 Ю 1 10 км 3/3 1000 м
[Cu med, cong]
+28.1 +15.5 46 +31 +37 душно 1017.2 1014.8
15 14.09 штиль 0 10 км 1/1 1000 м
[Cu med, cong]
+24.5 +16.2 60 +28 +28 душно 1016.6 1014.1 +28.6
18 14.09 С 2 10 км ясно +18.6 +15.6 83 +20 +20 1017.2 1014.7
21 14.09 С 2 10 км ясно +17.2 +10.1 63 +18 +18 1017.6 1015.1
00 15.09 С 4 10 км ясно +15.4 +8.8 65 +14 +14 1017.4 1014.9
03 15.09 С 3 10 км ясно +15.2 +7.9 62 +15 +15 1018.0 1015.5 +13.9
06 15.09 С 2 10 км 6/0
[Cs]
+18.4 +8.7 53 +19 +23 1018.9 1016.4
09 15.09 СЗ 1 10 км 3/0
[Ci fib]
+28.1 +6.7 26 +27 +40 жарко 1018.7 1016.3
12 15.09 З 2 10 км 3/1 1000 м
[Cu med, cong Ci fib]
+27.0 +11.5 38 +28 +34 жарко 1018.2 1015.8
15 15.09 СВ 1 10 км 4/0
[Cs]
+25.0 +12.9 47 +27 +27 жарко 1018.8 1016.4 +29.3
18 15.09 С 2 10 км 3/0
[Cs]
+19.9 +10.0 53 +22 +22 комфорт 1019.8 1017.3
21 15.09 С 3 10 км ясно +18.1 +7.1 49 +18 +18 1019.2 1016.7
00 16.09 С 3 10 км ясно +16.1 +5.0 48 +16 +16 1018.3 1015.8
03 16.09 С 3 10 км ясно +14.1 +5.2 55 +13 +13 1017.3 1014.7 +13.9
06 16.09 С 3 10 км ясно +19.2 +5.4 40 +20 +24 1016.3 1013.8 +13.9
09 16.09 СЗ 2 10 км ясно +26.9 +8.0 30 +27 +38 жарко 1014.8 1012.4
12 16.09 З 4 10 км ясно +26.0 +12.4 43 +28 +32 жарко 1013.4 1011.0
15 16.09 З 3 10 км ясно +24.0 +12.9 50 +26 +26 жарко 1013.1 1010.7 +28.1
18 16.09 С 2 10 км ясно +17.6 +12.7 73 +18 +18 1014.0 1011.5
21 16.09 С 3 10 км ясно +15.4 +10.1 71 +15 +15 1013.9 1011.4
00 17.09 С 2 10 км ясно +12.7 +9.6 81 +12 +12 1013.4 1010.9
03 17.09 С 3 10 км ясно +11.6 +9.0 84 +10 +10 1013.2 1010.6 +11.6
06 17.09 С 1 10 км ясно +17.6 +10.7 64 +19 +24 1013.1 1010.6 +11.5
09 17.09 штиль 0 10 км 4/4 600 м
[Cu med, cong]
+25.3 +15.7 55 +28 +38 жарко 1013.0 1010.6
12 17.09 штиль 0 10 км 3/3 600 м
[Cu med, cong]
+26.0 +13.5 46 +28 +35 жарко 1013.0 1010.6
15 17.09 штиль 0 10 км 8/5 600 м
[Cu med, cong Ac As Cc]
+21.4 +13.9 62 +24 +24 комфорт 1013.1 1010.6 +26.4
18 17.09 Ю 3 10 км 4/3 600 м
[Cu med, cong Ac As]
+21.4 +14.0 63 +24 +24 комфорт 1014.2 1011.8
21 17.09 Ю 3 10 км 4/4 600 м
[Cu hum Ac As]
+21.8 +15.3 67 +25 +25 комфорт 1014.3 1011.9
00 18.09 Ю 2
{10}
10 км слаб. ливневой дождь 10/10 600 м
[Cb cap]
+20.7 +14.9 69 +24 +24 комфорт 1013.6 1011.1
03 18.09 Ю 3
{12}
10 км {ливн. осадки} 9/8 600 м
[Cb cap Ac As]
+21.7 +15.3 67 +25 +25 комфорт 1013.8 1011.4 +20.7 0.0
06 18.09 ЮВ 1
{11}
10 км 8/5 600 м
[Cb cap]
+23.1 +16.0 64 +28 +29 душно 1014.7 1012.3
09 18.09 Ю 2
{12}
10 км 6/6 600 м
[Cb cap]
+24.6 +15.8 58 +28 +32 душно 1015.1 1012.7
12 18.09 Ю 1
{10}
10 км 8/6 600 м
[Cb cap]
+24.4 +18.0 68 +29 +31 душно 1014.1 1011.7
15 18.09 Ю 1 10 км ясно +23.1 +16.5 66 +28 +28 душно 1013.3 1010.9 +25.5
18 18.09 штиль 0 10 км ясно +22.8 +16.7 68 +27 +27 душно 1014.6 1012.1
21 18.09 С 3 10 км 6/4 600 м
[Cb cap Ac cast]
+20.8 +15.5 72 +24 +24 комфорт 1015.1 1012.6
00 19.09 С 3 10 км 3/0
[Ac cuf]
+17.6 +10.2 62 +18 +18 1016.4 1013.9
03 19.09 С 3 10 км 4/3 600 м
[Cb cap Ac cuf]
+16.3 +6.6 53 +16 +16 1017.8 1015.3 +16.3
06 19.09 С 3 10 км 8/3 600 м
[Cb cap Ac trans]
+17.3 +5.4 45 +17 +19 1019.1 1016.6
09 19.09 С 3 10 км 8/0
[Ac As]
+18.8 +6.2 44 +19 +23 1019.3 1016.8
12 19.09 С 3 10 км 10/0
[Ac As]
+20.0 +5.5 39 +21 +23 комфорт 1019.3 1016.8
15 19.09 С 3 10 км 10/3 600 м
[Cb cap Ac As]
+18.3 +5.6 43 +19 +19 1019.2 1016.7 +20.1
18 19.09 С 4 10 км 10/4 600 м
[Cb cap Ac As]
+16.4 +8.0 58 +16 +16 1018.9 1016.4
21 19.09 С 4
{10}
10 км 10/3 600 м
[Cb cap Ac As]
+14.9 +8.4 65 +14 +14 1018.5 1016.0
00 20.09 С 5-10
{10}
10 км 8/0
[Ac trans]
+14.0 +8.3 68 +12 +12 1017.4 1014.9
03 20.09 С 5
{11}
10 км 10/0
[Ac und]
+13.8 +8.4 70 +12 +12 1016.1 1013.6 +13.8
06 20.09 С 5-11
{12}
10 км 4/0
[Cs]
+16.9 +6.5 50 +16 +18 1014.7 1012.2 +13.5
09 20.09 С 5-11
{13}
10 км 8/3 600 м
[Cu med, cong Cs]
+19.7 +5.7 40 +20 +24 1012.8 1010.3
12 20.09 С 5-10
{12}
10 км 10/5 600 м
[Cb cap Ac As]
+17.9 +6.3 47 +18 +18 1011.7 1009.2
15 20.09 С 5-15
{16}
10 км 10/3 600 м
[Cb cap Ac As]
+14.9 +5.2 52 +14 +14 1012.2 1009.7 +20.0
18 20.09 СВ 4-12
{15}
10 км 10/4 600 м
[Cb cap Ac As]
+12.5 +6.6 67 +11 +11 1014.2 1011.7

 

Местоположение метеостанции Джубга (Краснодарский край, Россия): широта 44.33 долгота 38.72 высота над уровнем моря 23 м.

В архиве по умолчанию представлена погода в Джубге за последнюю неделю. Архивные данные за месяц целиком и за предыдущие месяцы, начиная с января 2011 года, Вы можете получить, выбрав интересующий диапазон дат из раскрывающегося списка и нажав кнопку "Ввод!".


*Определитесь, кто Вы:
робот инопланетянин человек

Внимание! Время в таблицах - всемирное. Для получения местного времени необходимо прибавить поправку, которая равна 3 ч.

Смотрите также архив погоды в соседних городах и на ближайших метеорологических станциях:

Погода в Туапсе (Краснодарский край, Россия) (38 км)
Погода в Горном (Краснодарский край, Россия) (44 км)
Погода в Горячем Ключе (Краснодарский край, Россия) (45 км)
Погода в Магри (Краснодарский край, Россия) (49 км)
Погода в Геленджике (Краснодарский край, Россия) (57 км)
Погода в Лазаревском (Краснодарский край, Россия) (68 км)
Погода в Новороссийске (Краснодарский край, Россия) (81 км)
Погода в Краснодаре (Краснодарский край, Россия) (84 км)
Погода в Кичмае (Краснодарский край, Россия) (84 км)
Погода в Крымске (Краснодарский край, Россия) (87 км)

Пояснения к столбцам:

Ветер - указаны скорость ветра в м/с - средняя за 10 мин, порывы в срок и между сроками (в фигурных скобках) и направление, откуда дует ветер: С - северный, СВ - северо-восточный, В - восточный, ЮВ - юго-восточный, Ю - южный, ЮЗ - юго-западный, З - западный, СЗ - северо-западный.
Видимость - горизонтальная дальность видимости в метрах или километрах. При видимости от 1 до 10 км при отсутствии осадков обычно наблюдается дымка, при ухудшении видимости до 1 км и менее - туман. В сухую погоду видимость может ухудшаться дымом, пылью или мглою.
Явления - указаны атмосферные явления, наблюдавшиеся в срок или в последний час перед сроком; фигурными скобками обозначены явления, наблюдавшиеся между сроками (за 1-3 часа до срока); квадратными скобками обозначены град или гололедные отложения с указанием их диаметра в мм.
Облачность - указаны через наклонную черту общая и нижняя облачность в баллах и высота нижней границы облаков в метрах; квадратными скобками обозначены формы облаков: Ci - перистые, Cs - перисто-слоистые, Cc - перисто-кучевые, Ac - высококучевые, As - высокослоистые, Sc - слоисто-кучевые, Ns - слоисто-дождевые, Cu - кучевые, Cb - кучево-дождевые. Подробнее классификацию облаков см. в Атласе облаков (PDF).
T - Температура воздуха - температура, измеренная на высоте 2 м над землей.
Td - Температура точки росы - температура, при понижении до которой содержащийся в воздухе водяной пар достигнет насыщения.
f - Относительная влажность воздуха - влажноcть воздуха, измеренная на высоте 2 м над землей.
Te - Эффективная температура - температура, которую ощущает одетый по сезону человек в тени. Характеристика душности погоды. При расчете учитывается влияние влажности воздуха и скорости ветра на теплоощущения человека.
Tes - Эффективная температура на солнце - температура, которую ощущает человек, с поправкой на солнечный нагрев. Характеристика знойности погоды. Зависит от высоты солнца над горизонтом, облачности и скорости ветра. Ночью, в пасмурную погоду, а также при ветре 12 м/с и более поправка равна нулю.
P - Атмосферное давление - приведенное к уровню моря атмосферное давление.
Po - Атмосферное давление - измеренное на уровне метеостанции атмосферное давление.
Tmin - Минимальная температура - минимум температуры воздуха на высоте 2 м над землей.
Tmax - Максимальная температура - максимум температуры воздуха на высоте 2 м над землей.
R - Количество осадков - Количество выпавших осадков за период времени, мм. При наведении курсора мыши на число - период времени, за который выпало указанное количество осадков.
R24 - Количество осадков - Количество выпавших осадков за 24 часа, мм.
S - Снежный покров - Высота снежного покрова, см. При наведении курсора мыши на число - состояние снежного покрова и степень покрытия местности в баллах.